CW7052 Weather Reports


time (UTC)temp
F
wind
direction
speed
knots
gust
knots
rain 1hr
in
rain 24hr
in
rain mn
in
humidity
%
barometer
mb
20260507040251 57 337 0.0 0.0 0.00 0.00 0.00 88 1019.2
20260507035251 57 337 0.0 0.0 0.00 0.00 0.00 87 1019.2
20260507034252 58 337 0.0 0.0 0.00 0.00 0.00 86 1019.1
20260507033252 58 337 0.0 0.0 0.00 0.00 0.00 85 1019.0
20260507032251 59 337 0.0 0.9 0.00 0.00 0.00 85 1018.9
20260507031251 59 337 0.0 0.0 0.00 0.00 0.00 84 1018.7
20260507030253 60 337 0.0 0.0 0.00 0.00 0.00 83 1018.6
20260507025252 61 337 0.0 0.0 0.00 0.00 0.00 81 1018.5
20260507024251 62 337 0.0 0.0 0.00 0.00 0.00 80 1018.2
20260507023255 63 337 0.0 0.9 0.00 0.00 0.00 79 1018.1
20260507022251 63 337 0.0 0.0 0.00 0.00 0.00 78 1018.1
20260507021251 64 339 0.0 0.0 0.00 0.00 0.00 77 1018.0
20260507020251 65 339 0.0 0.0 0.00 0.00 0.00 76 1017.9
20260507015251 66 339 0.0 0.0 0.00 0.00 0.00 75 1017.8
20260507014250 66 339 0.0 0.0 0.00 0.00 0.00 74 1017.8
20260507013250 67 339 0.0 0.0 0.00 0.00 0.00 73 1017.7
20260507012251 68 339 0.0 0.0 0.00 0.00 0.00 72 1017.7
20260507011251 68 339 0.0 0.9 0.00 0.00 0.00 72 1017.7
20260507010250 69 347 0.0 0.9 0.00 0.00 0.00 71 1017.5
20260507005251 70 250 0.0 0.9 0.00 0.00 0.00 70 1017.4
20260507004251 70 275 0.0 0.9 0.00 0.00 0.00 69 1017.3
20260507003251 71 343 0.0 0.9 0.00 0.00 0.00 68 1017.2
20260507002252 72 343 0.0 2.6 0.00 0.00 0.00 68 1017.0
20260507001254 72 178 0.0 0.9 0.00 0.00 0.00 67 1017.1
20260507000253 72 246 0.0 0.9 0.00 0.00 0.00 67 1017.0
20260506235251 73 229 0.0 0.9 0.00 0.00 0.00 66 1016.9
20260506234251 73 344 0.0 0.0 0.00 0.00 0.00 66 1017.0
20260506233251 73 344 0.0 0.9 0.00 0.00 0.00 65 1017.1
20260506232251 74 276 0.0 0.9 0.00 0.00 0.00 63 1016.9
20260506231254 76 287 0.0 0.9 0.00 0.00 0.00 60 1016.9
20260506230251 78 264 0.0 0.9 0.00 0.00 0.00 58 1016.9
20260506225250 79 268 0.0 0.9 0.00 0.00 0.00 56 1016.9
20260506224251 80 239 0.0 0.9 0.00 0.00 0.00 56 1016.9
20260506223254 80 243 0.0 0.9 0.00 0.00 0.00 56 1016.9
20260506222254 80 261 0.0 2.6 0.00 0.00 0.00 55 1017.0
20260506221250 80 206 0.0 1.7 0.00 0.00 0.00 54 1017.1
20260506220251 80 183 0.9 5.2 0.00 0.00 0.00 53 1017.2
20260506215254 79 167 0.0 3.5 0.00 0.00 0.00 56 1017.3
20260506214252 80 218 0.0 5.2 0.00 0.00 0.00 52 1017.4
20260506213250 79 187 0.0 5.2 0.00 0.00 0.00 53 1017.5
20260506212250 79 182 0.0 4.3 0.00 0.00 0.00 54 1017.6
20260506211251 79 88 0.0 3.5 0.00 0.00 0.00 54 1017.7
20260506210250 78 195 0.0 0.9 0.00 0.00 0.00 54 1017.7
20260506205254 77 210 0.0 4.3 0.00 0.00 0.00 55 1017.8
20260506204253 77 201 0.0 3.5 0.00 0.00 0.00 56 1017.9
20260506203250 77 184 0.0 1.7 0.00 0.00 0.00 57 1018.0
20260506202251 76 164 0.0 3.5 0.00 0.00 0.00 57 1018.3
20260506201251 74 31 0.0 0.0 0.00 0.00 0.00 60 1018.4
20260506200251 74 31 0.0 0.9 0.00 0.00 0.00 60 1018.5
20260506195251 73 54 0.0 2.6 0.00 0.00 0.00 63 1018.7
20260506194251 73 312 0.0 0.9 0.00 0.00 0.00 60 1018.8
20260506193251 72 312 0.0 0.9 0.00 0.00 0.00 63 1018.8
20260506192250 72 250 0.0 0.9 0.00 0.00 0.00 60 1019.0
20260506191251 73 243 0.0 0.0 0.00 0.00 0.00 63 1018.9
20260506190250 73 243 0.0 0.9 0.00 0.00 0.00 59 1018.9
20260506185252 73 174 0.0 0.9 0.00 0.00 0.00 60 1019.0
20260506184253 72 75 0.0 0.9 0.00 0.00 0.00 62 1019.2
20260506183252 72 60 1.7 2.6 0.00 0.00 0.00 63 1019.2
20260506182251 70 232 0.0 0.9 0.00 0.00 0.00 64 1019.3
20260506181251 70 252 0.0 0.0 0.00 0.00 0.00 65 1019.3
20260506180250 70 252 0.0 0.9 0.00 0.00 0.00 64 1019.4
20260506175254 69 145 0.0 0.9 0.00 0.00 0.00 69 1019.4
20260506174252 69 145 0.0 0.9 0.00 0.00 0.00 68 1019.5
20260506173251 69 145 0.0 0.0 0.00 0.00 0.00 69 1019.6
20260506172251 68 145 0.0 0.0 0.00 0.00 0.00 71 1019.6
20260506171251 66 145 0.0 2.6 0.00 0.00 0.00 73 1019.7
20260506170254 64 83 0.0 0.9 0.00 0.00 0.00 78 1019.8
20260506165251 63 45 0.0 0.9 0.00 0.00 0.00 83 1019.8
20260506164254 61 45 0.0 0.0 0.00 0.00 0.00 85 1019.9
20260506163251 59 291 0.0 0.0 0.00 0.00 0.00 91 1020.0
20260506162251 57 291 0.0 0.0 0.00 0.00 0.00 92 1020.1
20260506161251 56 291 0.0 0.0 0.00 0.00 0.00 93 1020.2
20260506160250 55 291 0.0 0.0 0.00 0.00 0.00 93 1020.2
20260506155251 55 291 0.0 0.0 0.00 0.00 0.00 93 1020.3
20260506154251 55 291 0.0 0.0 0.00 0.00 0.00 93 1020.2
20260506153250 54 291 0.0 0.0 0.00 0.00 0.00 93 1020.2
20260506152251 54 291 0.0 0.0 0.00 0.00 0.00 93 1020.2
20260506151250 54 291 0.0 0.0 0.00 0.00 0.00 93 1020.2
20260506150251 54 291 0.0 0.0 0.00 0.00 0.00 93 1020.3
20260506145250 54 291 0.0 0.0 0.00 0.00 0.00 94 1020.3
20260506144251 54 291 0.0 0.0 0.00 0.00 0.00 94 1020.4
20260506143251 53 291 0.0 0.0 0.00 0.00 0.00 94 1020.4
20260506142251 53 291 0.0 0.0 0.00 0.00 0.00 95 1020.4
20260506141250 52 291 0.0 0.0 0.00 0.00 0.00 94 1020.4
20260506140250 52 291 0.0 0.0 0.00 0.00 0.00 94 1020.3
20260506135250 52 291 0.0 0.0 0.00 0.00 0.00 94 1020.0
20260506134250 52 291 0.0 0.0 0.00 0.00 0.00 94 1019.9
20260506133250 52 291 0.0 0.0 0.00 0.00 0.00 94 1019.8
20260506132250 52 291 0.0 0.0 0.00 0.00 0.00 94 1019.7
20260506131250 52 291 0.0 0.0 0.00 0.00 0.00 94 1019.7
20260506130251 52 291 0.0 0.0 0.00 0.00 0.00 94 1019.5
20260506125250 52 291 0.0 0.0 0.00 0.00 0.00 94 1019.5
20260506124250 52 291 0.0 0.0 0.00 0.00 0.00 94 1019.4
20260506123250 52 291 0.0 0.0 0.00 0.00 0.00 94 1019.3
20260506122251 52 291 0.0 0.0 0.00 0.00 0.00 94 1019.3
20260506121250 52 291 0.0 0.0 0.00 0.00 0.00 94 1019.2
20260506120251 52 291 0.0 0.0 0.00 0.00 0.00 94 1019.2
20260506115253 52 291 0.0 0.0 0.00 0.00 0.00 94 1019.1
20260506114251 52 291 0.0 0.0 0.00 0.00 0.00 94 1019.1
20260506113251 52 291 0.0 0.0 0.00 0.00 0.00 93 1019.1
20260506112250 52 291 0.0 0.0 0.00 0.00 0.00 93 1019.1
20260506111253 53 291 0.0 0.0 0.00 0.00 0.00 93 1019.0
20260506110251 53 291 0.0 0.0 0.00 0.00 0.00 93 1018.9
20260506105251 53 291 0.0 0.0 0.00 0.00 0.00 93 1018.9
20260506104251 53 291 0.0 0.0 0.00 0.00 0.00 93 1018.9
20260506103251 53 291 0.0 0.0 0.00 0.00 0.00 93 1018.9
20260506102250 52 291 0.0 0.0 0.00 0.00 0.00 93 1019.0
20260506101250 53 291 0.0 0.0 0.00 0.00 0.00 93 1019.0
20260506100250 53 291 0.0 0.0 0.00 0.00 0.00 93 1018.9
20260506095252 53 291 0.0 0.0 0.00 0.00 0.00 93 1019.0
20260506094250 52 291 0.0 0.0 0.00 0.00 0.00 93 1019.1
20260506093253 53 291 0.0 0.0 0.00 0.00 0.00 92 1019.1
20260506092251 53 291 0.0 0.0 0.00 0.00 0.00 92 1019.0
20260506091251 53 291 0.0 0.0 0.00 0.00 0.00 92 1018.8
20260506090250 53 291 0.0 0.0 0.00 0.00 0.00 91 1018.7
20260506085250 53 291 0.0 0.0 0.00 0.00 0.00 91 1018.7
20260506084251 53 291 0.0 0.0 0.00 0.00 0.00 91 1018.8
20260506083251 54 291 0.0 0.0 0.00 0.00 0.00 91 1018.8
20260506082253 54 291 0.0 0.0 0.00 0.00 0.00 91 1018.8
20260506081250 54 291 0.0 0.0 0.00 0.00 0.00 90 1018.8
20260506080251 54 291 0.0 0.0 0.00 0.00 0.00 90 1018.8
20260506073250 55 291 0.0 0.0 0.00 0.00 0.00 89 1018.5
20260506072252 55 291 0.0 0.0 0.00 0.00 0.00 90 1018.6
20260506071250 55 291 0.0 0.0 0.00 0.00 0.00 90 1018.5
20260506070250 55 291 0.0 0.0 0.00 0.00 0.00 89 1018.5
20260506062250 55 291 0.0 0.0 0.00 0.00 0.00 89 1018.2
20260506061250 55 291 0.0 0.0 0.00 0.00 0.00 89 1018.1
20260506060250 55 291 0.0 0.0 0.00 0.00 0.00 89 1018.1
20260506051250 56 291 0.0 0.0 0.00 0.00 0.00 88 1017.9
20260506050250 56 291 0.0 0.0 0.00 0.00 0.00 87 1017.9
20260506044251 56 291 0.0 0.0 0.00 0.00 0.00 86 1017.7
20260506043251 56 291 0.0 0.0 0.00 0.00 0.00 86 1017.5
20260506042251 56 291 0.0 0.0 0.00 0.00 0.00 86 1017.5
20260506041254 56 291 0.0 0.0 0.00 0.00 0.00 85 1017.4